Weather History for Thomaston, GA

Change the Weather History Date:

Thursday, April 25, 2013

  Actual Average (KFFC) Record (KFFC)
Temperature  
Mean Temperature 62 °F 63 °F  
Max Temperature 73 °F 77 °F 84 °F (2004)
Min Temperature 51 °F 50 °F 30 °F (2005)
Degree Days  
Heating Degree Days 3 4  
Month to date heating degree days 151  
Since 1 July heating degree days 2903  
Cooling Degree Days 0 2  
Month to date cooling degree days 21  
Year to date cooling degree days 26  
Growing Degree Days 12 (Base 50)    
Moisture  
Dew Point 45 °F    
Average Humidity 61    
Maximum Humidity 100    
Minimum Humidity 22    
Precipitation  
Precipitation 0.00 in 0.12 in 1.65 in (2003)
Month to date precipitation 3.35  
Year to date precipitation 17.56  
Sea Level Pressure  
Sea Level Pressure 30.23 in    
Wind  
Wind Speed 5 mph (NNW)    
Max Wind Speed 12 mph    
Max Gust Speed 17 mph    
Visibility 10 miles    
Events      
T = Trace of Precipitation, MM = Missing Value Source: NWS Daily Summary

Daily Weather History Graph

Daily Weather History Graph

Search for Another Location

Airport:

Trip Planner

Search our weather history database for the weather conditions in past years. The results will help you decide how hot, cold, wet, or windy it might be!

Date:

Astronomy

Apr. 25, 2013 Rise Set
Actual Time 6:55 AM EDT 8:14 PM EDT
Civil Twilight 6:29 AM EDT 8:40 PM EDT
Nautical Twilight 5:58 AM EDT 9:11 PM EDT
Astronomical Twilight 5:26 AM EDT 9:44 PM EDT
Moon 8:25 PM EDT (4/25) 6:37 AM EDT (4/25)
Length of Visible Light 14h 11m
Length of Day
13h 19m
Full, 100% of the Moon is Illuminated
Apr 25
Full
Apr 25
Full
May 2
Last Quarter
May 9
New
May 18
First Quarter

Hourly Weather History & Observations

Time (EDT) Temp. Dew Point Humidity Pressure Visibility Wind Dir Wind Speed Gust Speed Precip Events Conditions
12:15 AM 62.6 °F 60.8 °F 94% 30.14 in 10.0 mi NW 3.5 mph - N/A   Overcast
12:35 AM 62.6 °F 62.6 °F 100% 30.14 in 10.0 mi WNW 4.6 mph - N/A   Overcast
12:55 AM 62.6 °F 62.6 °F 100% 30.14 in 10.0 mi WNW 4.6 mph - N/A   Overcast
1:15 AM 62.6 °F 62.6 °F 100% 30.14 in 10.0 mi NW 4.6 mph - N/A   Mostly Cloudy
1:35 AM 64.4 °F 62.6 °F 94% 30.14 in 10.0 mi NNW 5.8 mph - N/A   Mostly Cloudy
1:55 AM 62.6 °F 62.6 °F 100% 30.14 in 10.0 mi NNW 5.8 mph - N/A   Overcast
2:15 AM 62.6 °F 60.8 °F 94% 30.14 in 10.0 mi NNW 5.8 mph - N/A   Overcast
2:35 AM 60.8 °F 60.8 °F 100% 30.14 in 10.0 mi NNW 5.8 mph - N/A   Overcast
2:55 AM 60.8 °F 59.0 °F 94% 30.14 in 10.0 mi NNW 6.9 mph - N/A   Mostly Cloudy
3:15 AM 60.8 °F 59.0 °F 94% 30.13 in 10.0 mi NNW 5.8 mph - N/A   Mostly Cloudy
3:35 AM 59.0 °F 59.0 °F 100% 30.13 in 10.0 mi NNW 5.8 mph - N/A   Overcast
3:55 AM 59.0 °F 57.2 °F 94% 30.14 in 10.0 mi NNW 5.8 mph - N/A   Overcast
4:15 AM 59.0 °F 57.2 °F 94% 30.14 in 10.0 mi North 4.6 mph - N/A   Mostly Cloudy
4:35 AM 59.0 °F 57.2 °F 94% 30.14 in 10.0 mi NNW 3.5 mph - N/A   Overcast
4:55 AM 57.2 °F 55.4 °F 94% 30.15 in 10.0 mi NNW 9.2 mph - N/A   Overcast
5:15 AM 55.4 °F 53.6 °F 94% 30.16 in 10.0 mi NNW 4.6 mph - N/A   Overcast
5:35 AM 53.6 °F 51.8 °F 94% 30.17 in 10.0 mi North 9.2 mph 16.1 mph N/A   Overcast
5:55 AM 53.6 °F 50.0 °F 88% 30.19 in 10.0 mi NNW 9.2 mph 16.1 mph N/A   Overcast
6:15 AM 53.6 °F 50.0 °F 88% 30.19 in 10.0 mi NNW 8.1 mph - N/A   Overcast
6:35 AM 51.8 °F 50.0 °F 94% 30.20 in 10.0 mi NNW 5.8 mph - N/A   Overcast
6:55 AM 51.8 °F 50.0 °F 94% 30.21 in 10.0 mi NNW 5.8 mph - N/A   Overcast
7:15 AM 51.8 °F 50.0 °F 94% 30.21 in 10.0 mi North 4.6 mph - N/A   Overcast
7:35 AM 51.8 °F 46.4 °F 82% 30.21 in 10.0 mi North 3.5 mph - N/A   Overcast
7:55 AM 51.8 °F 46.4 °F 82% 30.22 in 10.0 mi NNW 4.6 mph - N/A   Overcast
8:15 AM 51.8 °F 46.4 °F 82% 30.23 in 10.0 mi NW 5.8 mph - N/A   Overcast
8:35 AM 51.8 °F 46.4 °F 82% 30.24 in 10.0 mi NW 8.1 mph - N/A   Mostly Cloudy
8:55 AM 51.8 °F 44.6 °F 76% 30.24 in 10.0 mi NW 4.6 mph - N/A   Mostly Cloudy
9:15 AM 53.6 °F 46.4 °F 77% 30.24 in 10.0 mi NNW 3.5 mph - N/A   Mostly Cloudy
9:35 AM 55.4 °F 46.4 °F 72% 30.24 in 10.0 mi NNW 4.6 mph - N/A   Scattered Clouds
9:55 AM 55.4 °F 46.4 °F 72% 30.24 in 10.0 mi Calm Calm - N/A   Mostly Cloudy
10:15 AM 59.0 °F 46.4 °F 63% 30.24 in 10.0 mi NNW 3.5 mph - N/A   Scattered Clouds
10:35 AM 59.0 °F 46.4 °F 63% 30.25 in 10.0 mi NW 4.6 mph - N/A   Clear
10:55 AM 60.8 °F 48.2 °F 63% 30.25 in 10.0 mi North 5.8 mph - N/A   Clear
11:15 AM 60.8 °F 50.0 °F 68% 30.26 in 10.0 mi North 5.8 mph - N/A   Clear
11:35 AM 62.6 °F 48.2 °F 59% 30.27 in 10.0 mi North 6.9 mph - N/A   Clear
11:55 AM 64.4 °F 48.2 °F 56% 30.27 in 10.0 mi NW 3.5 mph - N/A   Clear
12:15 PM 66.2 °F 46.4 °F 49% 30.27 in 10.0 mi NW 8.1 mph - N/A   Clear
12:35 PM 68.0 °F 44.6 °F 43% 30.27 in 10.0 mi NNW 6.9 mph - N/A   Clear
12:55 PM 68.0 °F 44.6 °F 43% 30.27 in 10.0 mi NW 6.9 mph - N/A   Clear
1:15 PM 69.8 °F 44.6 °F 40% 30.27 in 10.0 mi North 8.1 mph - N/A   Clear
1:35 PM 69.8 °F 44.6 °F 40% 30.27 in 10.0 mi NW 10.4 mph - N/A   Clear
1:55 PM 69.8 °F 44.6 °F 40% 30.27 in 10.0 mi North 9.2 mph - N/A   Clear
2:15 PM 69.8 °F 42.8 °F 38% 30.27 in 10.0 mi NW 9.2 mph 17.3 mph N/A   Clear
2:35 PM 71.6 °F 44.6 °F 38% 30.26 in 10.0 mi North 5.8 mph - N/A   Clear
2:55 PM 71.6 °F 39.2 °F 31% 30.26 in 10.0 mi NNW 8.1 mph - N/A   Clear
3:15 PM 73.4 °F 37.4 °F 27% 30.26 in 10.0 mi NNW 10.4 mph - N/A   Clear
3:35 PM 73.4 °F 37.4 °F 27% 30.24 in 10.0 mi North 5.8 mph - N/A   Clear
3:55 PM 73.4 °F 35.6 °F 25% 30.24 in 10.0 mi NNW 6.9 mph - N/A   Clear
4:15 PM 73.4 °F 32.0 °F 22% 30.23 in 10.0 mi NNE 5.8 mph - N/A   Clear
4:35 PM 73.4 °F 35.6 °F 25% 30.23 in 10.0 mi NNW 11.5 mph - N/A   Clear
4:55 PM 73.4 °F 37.4 °F 27% 30.23 in 10.0 mi North 8.1 mph 17.3 mph N/A   Clear
5:15 PM 73.4 °F 35.6 °F 25% 30.23 in 10.0 mi NNW 5.8 mph - N/A   Clear
5:35 PM 73.4 °F 39.2 °F 29% 30.24 in 10.0 mi North 5.8 mph - N/A   Clear
5:55 PM 73.4 °F 39.2 °F 29% 30.24 in 10.0 mi NNW 5.8 mph - N/A   Clear
6:15 PM 71.6 °F 37.4 °F 29% 30.24 in 10.0 mi North 4.6 mph - N/A   Clear
6:35 PM 71.6 °F 35.6 °F 27% 30.25 in 10.0 mi NW 6.9 mph - N/A   Clear
6:55 PM 71.6 °F 37.4 °F 29% 30.26 in 10.0 mi North 6.9 mph - N/A   Clear
7:15 PM 69.8 °F 37.4 °F 31% 30.26 in 10.0 mi NNW 3.5 mph - N/A   Clear
7:35 PM 68.0 °F 37.4 °F 33% 30.26 in 10.0 mi NNW 3.5 mph - N/A   Clear
7:55 PM 66.2 °F 37.4 °F 35% 30.26 in 10.0 mi NNW 3.5 mph - N/A   Clear
8:15 PM 64.4 °F 37.4 °F 37% 30.26 in 10.0 mi NNW 3.5 mph - N/A   Clear
8:35 PM 62.6 °F 37.4 °F 39% 30.27 in 10.0 mi Calm Calm - N/A   Clear
8:55 PM 60.8 °F 37.4 °F 42% 30.27 in 10.0 mi North 3.5 mph - N/A   Clear
9:15 PM 59.0 °F 35.6 °F 42% 30.28 in 10.0 mi North 4.6 mph - N/A   Clear
9:35 PM 59.0 °F 33.8 °F 39% 30.29 in 10.0 mi North 4.6 mph - N/A   Clear
9:55 PM 59.0 °F 32.0 °F 36% 30.30 in 10.0 mi North 4.6 mph - N/A   Clear
10:15 PM 57.2 °F 33.8 °F 41% 30.31 in 10.0 mi North 4.6 mph - N/A   Clear
10:35 PM 55.4 °F 32.0 °F 41% 30.31 in 10.0 mi North 4.6 mph - N/A   Clear
10:55 PM 55.4 °F 33.8 °F 44% 30.31 in 10.0 mi NNE 4.6 mph - N/A   Clear
11:15 PM 55.4 °F 33.8 °F 44% 30.32 in 10.0 mi North 4.6 mph - N/A   Clear
11:35 PM 53.6 °F 33.8 °F 47% 30.31 in 10.0 mi North 4.6 mph - N/A   Clear
11:55 PM 53.6 °F 33.8 °F 47% 30.31 in 10.0 mi North 5.8 mph - N/A   Clear